Regional Weather Roundup
Issued by NWS Midland/Odessa, TX

Home | Current Version | Previous Version | Text Only | Print | Product List | Glossary On
Versions: 1 2 3 4 5 6 7 8 9 10 11 12 13 14 15 16 17 18 19 20 21 22 23 24 25 26 27 28 29 30 31 32 33 34 35 36 37 38 39 40 41 42 43 44 45 46 47 48 49 50
000
ASUS44 KMAF 221610
RWRMAF
MIDLAND AREA WEATHER ROUNDUP
NATIONAL WEATHER SERVICE MIDLAND TX
1100 AM CDT FRI AUG 22 2014

...IN SOUTHWEST TEXAS AND SOUTHEAST NEW MEXICO...

CITY           SKY/WX    TMP DP  RH WIND       PRES   REMARKS
ALPINE         SUNNY     81  59  48 S8        30.21F
ANDREWS        FAIR      83  60  46 S12       30.10S
ARTESIA        MOSUNNY   82  55  39 S9        30.08S
BIG SPRING     SUNNY     84  59  42 S17       30.11S
CARLSBAD       SUNNY     84  59  42 E6        30.07S
DRYDEN           N/A     87  64  46 SE14      30.05F
FORT STOCKTON  SUNNY     82  61  48 SE8       30.09S
GUAD PASS      SUNNY     74  57  55 SW14      30.22R
HOBBS          SUNNY     81  59  47 CALM      30.12S
MARFA          SUNNY     79  57  47 S9        30.21S
MIDLAND AIRPK  SUNNY     85  59  41 S13       30.09F
MIDLAND INTL   SUNNY     83  61  47 S12       30.08F
ODESSA         SUNNY     81  61  50 S14       30.10S
PECOS          SUNNY     84  59  42 CALM      30.06S
PRESIDIO       FAIR      80  67  63 CALM      30.07S
SEMINOLE       SUNNY     85  58  40 S9        30.11S
SNYDER         SUNNY     83  64  52 SW16G24   30.09S
WINK           SUNNY     84  62  47 VRB6      30.06S
$$
...OTHER STATIONS IN TEXAS...

CITY           SKY/WX    TMP DP  RH WIND       PRES   REMARKS
ABILENE        SUNNY     86  62  44 SW20G25   30.07R
AMARILLO       SUNNY     86  63  45 S13G21    30.07R
AUSTIN         MOSUNNY   89  70  53 S12G23    30.07S
BROWNSVILLE    SUNNY     91  73  55 SE14      30.05S
CORPUS CHRISTI MOSUNNY   91  71  51 S17       30.05S
DALLAS FTW     SUNNY     89  68  49 SW20      30.04S
DEL RIO        MOSUNNY   84  68  58 SE9G18    30.03S
EL PASO        CLOUDY    69  61  75 CALM      30.14R
HOUSTON INT    MOSUNNY   88  75  66 S7        30.09S
LUBBOCK        MOSUNNY   85  62  46 SW16      30.09
SAN ANGELO     SUNNY     87  58  37 S16G25    30.07S
SAN ANTONIO    MOSUNNY   88  68  51 S12       30.08S
WACO           SUNNY     89  70  53 S14       30.07S
WICHITA FALLS  NOT AVBL
$$
...OTHER LOCATIONS IN NEW MEXICO...

CITY           SKY/WX    TMP DP  RH WIND       PRES   REMARKS
ALAMAGORDO     PTSUNNY   68  64  88 W12       30.13S
ALBUQUERQUE    LGT RAIN  62  58  86 CALM      30.26S
CANNON AFB     SUNNY     83  59  43 W15G22    30.11R
CLOVIS           N/A     86  57  37 SW15G23   30.12F
HOLLOMAN AFB   DRIZZLE   68  67  97 NW10      30.12R
ROSWELL        PTSUNNY   84  55  36 CALM      30.08R
RUIDOSO        PTSUNNY   63  55  77 NE9       30.29F
SANTA FE       LGT RAIN  61  54  77 VRB7      30.28F
TRUTH OR CONSE CLOUDY    65  61  87 CALM      30.18F
TUCUMCARI      SUNNY     88  53  30 W18       30.07R
$$



USA.gov is the U.S. government's official web portal to all federal, state and local government web resources and services.